IK4PKL Weather Reports


time (UTC)temp
F
wind
direction
speed
knots
gust
knots
rain 1hr
in
rain 24hr
in
rain mn
in
humidity
%
barometer
mb
20260508020503 55 333 1.7 6.1 0.00 0.00 0.00 89 1015.4
20260508020005 55 339 1.7 3.5 0.00 0.00 0.00 89 1015.5
20260508015503 55 179 1.7 5.2 0.00 0.00 0.00 90 1015.4
20260508015003 55 176 2.6 5.2 0.00 0.00 0.00 90 1015.5
20260508014505 55 134 1.7 4.3 0.00 0.00 0.00 89 1015.5
20260508014003 55 108 1.7 5.2 0.00 0.00 0.00 90 1015.3
20260508013713 55 31 2.6 5.2 0.00 0.00 0.00 89 1015.4
20260508013214 56 76 2.6 5.2 0.00 0.00 0.00 89 1015.4
20260508012504 56 152 0.9 5.2 0.00 0.00 0.00 90 1015.4
20260508012003 56 267 0.9 5.2 0.00 0.00 0.00 90 1015.6
20260508011504 56 252 1.7 5.2 0.00 0.00 0.00 90 1015.4
20260508011003 56 255 2.6 5.2 0.00 0.00 0.00 91 1015.6
20260508010503 56 273 2.6 7.0 0.00 0.00 0.00 91 1015.4
20260508010005 56 276 3.5 7.0 0.00 0.00 0.00 90 1015.5
20260508005715 56 278 3.5 7.0 0.00 0.00 0.00 90 1015.4
20260508005003 56 301 3.5 6.1 0.00 0.00 0.00 90 1015.4
20260508004503 56 302 2.6 6.1 0.00 0.00 0.00 89 1015.6
20260508004005 56 314 2.6 6.1 0.00 0.00 0.00 88 1015.3
20260508003503 57 311 2.6 7.8 0.00 0.00 0.00 88 1015.5
20260508003003 57 319 3.5 7.8 0.00 0.00 0.00 87 1015.7
20260508002712 57 324 2.6 5.2 0.00 0.00 0.00 86 1015.5
20260508002003 58 308 0.9 2.6 0.00 0.00 0.00 85 1015.6
20260508001503 59 309 0.0 1.7 0.00 0.00 0.00 83 1015.6
20260508001003 59 335 0.0 2.6 0.00 0.00 0.00 82 1015.8
20260508000503 59 353 0.9 2.6 0.00 0.00 0.00 82 1015.8
20260508000005 60 6 0.9 2.6 0.00 0.00 0.00 82 1015.7
20260507235714 60 335 0.0 2.6 0.00 0.00 0.00 81 1015.9
20260507235003 60 258 0.9 3.5 0.00 0.00 0.00 82 1016.0
20260507234503 60 85 1.7 3.5 0.00 0.00 0.00 80 1015.9
20260507234003 60 65 1.7 2.6 0.00 0.00 0.00 80 1015.8
20260507233503 60 79 1.7 2.6 0.00 0.00 0.00 81 1015.6
20260507233003 59 113 0.9 2.6 0.00 0.00 0.00 83 1015.6
20260507232503 59 132 0.0 1.7 0.00 0.00 0.00 84 1015.7
20260507232213 59 52 0.9 2.6 0.00 0.00 0.00 84 1015.8
20260507231503 60 59 0.9 2.6 0.00 0.00 0.00 82 1015.7
20260507231003 60 136 1.7 3.5 0.00 0.00 0.00 81 1015.9
20260507230714 60 154 1.7 3.5 0.00 0.00 0.00 82 1015.8
20260507225213 60 156 2.6 3.5 0.00 0.00 0.00 83 1016.0
20260507224505 59 85 1.7 3.5 0.00 0.00 0.00 84 1015.9
20260507224003 59 96 1.7 3.5 0.00 0.00 0.00 84 1015.9
20260507223714 59 85 1.7 3.5 0.00 0.00 0.00 84 1015.8
20260507223213 59 81 1.7 3.5 0.00 0.00 0.00 84 1016.0
20260507222714 59 79 0.9 2.6 0.00 0.00 0.00 84 1015.8
20260507222213 59 105 1.7 2.6 0.00 0.00 0.00 85 1015.7
20260507221505 59 129 2.6 4.3 0.00 0.00 0.00 85 1015.8
20260507221003 59 137 3.5 5.2 0.00 0.00 0.00 85 1015.6
20260507220503 59 129 3.5 5.2 0.00 0.00 0.00 85 1015.7
20260507220005 59 112 2.6 5.2 0.00 0.00 0.00 85 1015.6
20260507215505 59 127 2.6 4.3 0.00 0.00 0.00 85 1015.6
20260507215003 59 137 2.6 4.3 0.00 0.00 0.00 85 1015.7
20260507214503 59 138 2.6 4.3 0.00 0.00 0.00 84 1015.6
20260507214003 59 149 3.5 6.1 0.00 0.00 0.00 84 1015.6
20260507213715 59 149 4.3 7.0 0.00 0.00 0.00 84 1015.4
20260507213004 60 156 5.2 7.0 0.00 0.00 0.00 84 1015.7
20260507212503 60 159 4.3 7.0 0.00 0.00 0.00 84 1015.7
20260507212212 60 157 4.3 7.0 0.00 0.00 0.00 83 1015.6
20260507211503 60 151 3.5 5.2 0.00 0.00 0.00 83 1015.7
20260507211004 60 146 2.6 5.2 0.00 0.00 0.00 82 1015.5
20260507210503 61 117 1.7 3.5 0.00 0.00 0.00 81 1015.5
20260507210004 62 84 1.7 2.6 0.00 0.00 0.00 79 1015.6
20260507205503 62 105 1.7 3.5 0.00 0.00 0.00 79 1015.6
20260507205003 62 134 2.6 3.5 0.00 0.00 0.00 78 1015.5
20260507204505 62 91 1.7 3.5 0.00 0.00 0.00 77 1015.6
20260507204003 63 47 1.7 3.5 0.00 0.00 0.00 76 1015.8
20260507203713 63 145 1.7 3.5 0.00 0.00 0.00 76 1015.7
20260507203003 63 168 1.7 2.6 0.00 0.00 0.00 77 1015.9
20260507202503 63 109 0.9 3.5 0.00 0.00 0.00 75 1015.8
20260507202005 64 77 0.9 3.5 0.00 0.00 0.00 75 1015.8
20260507201503 64 93 0.9 3.5 0.00 0.00 0.00 75 1015.9
20260507201003 64 110 1.7 4.3 0.00 0.00 0.00 75 1015.6
20260507200503 64 123 2.6 5.2 0.00 0.00 0.00 74 1015.8
20260507200003 64 122 3.5 5.2 0.00 0.00 0.00 74 1015.9
20260507195503 64 118 3.5 5.2 0.00 0.00 0.00 73 1015.7
20260507195004 64 116 3.5 5.2 0.00 0.00 0.00 73 1015.8
20260507194503 64 110 2.6 5.2 0.00 0.00 0.00 73 1015.8
20260507194005 64 107 1.7 3.5 0.00 0.00 0.00 72 1015.9
20260507193503 64 117 1.7 3.5 0.00 0.00 0.00 72 1015.6
20260507193003 64 115 2.6 4.3 0.00 0.00 0.00 72 1015.6
20260507192503 64 117 2.6 6.1 0.00 0.00 0.00 72 1015.4
20260507192003 64 123 2.6 6.1 0.00 0.00 0.00 72 1015.6
20260507191503 65 110 2.6 6.1 0.00 0.00 0.00 71 1015.6
20260507191003 65 110 3.5 6.1 0.00 0.00 0.00 71 1015.3
20260507190504 64 126 3.5 6.1 0.00 0.00 0.00 71 1015.4
20260507190004 64 138 3.5 5.2 0.00 0.00 0.00 72 1015.5
20260507185504 65 150 3.5 5.2 0.00 0.00 0.00 71 1015.5
20260507185003 65 149 2.6 5.2 0.00 0.00 0.00 71 1015.3
20260507184712 65 148 2.6 5.2 0.00 0.00 0.00 71 1015.3
20260507184003 65 144 1.7 3.5 0.00 0.00 0.00 72 1015.3
20260507183503 65 159 1.7 3.5 0.00 0.00 0.00 72 1015.3
20260507183213 65 162 1.7 3.5 0.00 0.00 0.00 72 1015.2
20260507182504 65 157 2.6 4.3 0.00 0.00 0.00 72 1015.1
20260507182003 65 137 3.5 5.2 0.00 0.00 0.00 72 1015.1
20260507181503 66 113 2.6 7.0 0.00 0.00 0.00 71 1015.2
20260507181005 66 111 3.5 7.8 0.00 0.00 0.00 71 1015.1
20260507180714 66 115 4.3 10.4 0.00 0.00 0.00 71 1015.0
20260507180003 66 139 7.0 13.0 0.00 0.00 0.00 71 1014.9
20260507175714 66 139 8.7 13.9 0.00 0.00 0.00 71 1014.6
20260507175004 66 133 9.6 13.9 0.00 0.00 0.00 71 1014.8
20260507174504 66 132 8.7 13.9 0.00 0.00 0.00 72 1014.7
20260507174003 66 127 7.0 13.9 0.00 0.00 0.00 74 1014.7
20260507173503 66 122 7.0 15.6 0.00 0.00 0.00 74 1014.6
20260507173005 65 118 7.8 15.6 0.00 0.00 0.00 75 1014.5
20260507172714 66 117 8.7 15.6 0.00 0.00 0.00 75 1014.5
20260507172005 65 116 8.7 18.2 0.00 0.00 0.00 77 1014.6
20260507171714 65 117 8.7 18.2 0.00 0.00 0.00 78 1014.6
20260507171003 65 113 9.6 18.2 0.00 0.00 0.00 79 1014.6
20260507170505 65 115 8.7 17.4 0.00 0.00 0.00 80 1014.4
20260507170003 65 114 7.8 18.2 0.00 0.00 0.00 80 1014.5
20260507165504 65 116 9.6 18.2 0.00 0.00 0.00 79 1014.7
20260507165003 65 125 7.8 14.8 0.00 0.00 0.00 79 1014.8
20260507164503 66 123 5.2 13.9 0.00 0.00 0.00 76 1014.6
20260507164003 66 107 6.1 14.8 0.00 0.00 0.00 74 1014.6
20260507163503 66 106 7.8 14.8 0.00 0.00 0.00 73 1014.4
20260507163003 66 106 6.1 13.9 0.00 0.00 0.00 72 1014.5
20260507162716 67 91 5.2 13.9 0.00 0.00 0.00 69 1014.6
20260507162003 67 78 4.3 10.4 0.00 0.00 0.00 64 1014.7
20260507161713 66 82 4.3 12.2 0.00 0.00 0.00 64 1014.7
20260507161212 66 80 5.2 12.2 0.00 0.00 0.00 64 1014.8
20260507160504 66 83 5.2 13.0 0.00 0.00 0.00 59 1014.6
20260507160003 66 95 5.2 13.0 0.00 0.00 0.00 57 1014.5
20260507155505 66 103 4.3 11.3 0.00 0.00 0.00 58 1014.6
20260507155003 66 94 5.2 11.3 0.00 0.00 0.00 60 1015.0
20260507154503 66 84 6.1 11.3 0.00 0.00 0.00 58 1014.7
20260507154212 66 84 5.2 9.6 0.00 0.00 0.00 61 1014.8
20260507153504 66 67 5.2 12.2 0.00 0.00 0.00 59 1014.9
20260507153003 66 71 6.1 12.2 0.00 0.00 0.00 56 1014.8
20260507152503 65 70 6.1 12.2 0.00 0.00 0.00 58 1014.7
20260507152003 66 69 6.1 11.3 0.00 0.00 0.00 54 1014.9
20260507151503 67 76 5.2 13.9 0.00 0.00 0.00 52 1014.7
20260507151003 66 80 7.0 13.9 0.00 0.00 0.00 52 1014.8
20260507150503 66 81 7.0 13.9 0.00 0.00 0.00 52 1014.8
20260507150005 66 75 7.0 13.0 0.00 0.00 0.00 49 1014.8
20260507145503 66 68 6.1 13.0 0.00 0.00 0.00 52 1014.8
20260507145003 65 70 8.7 13.9 0.00 0.00 0.00 50 1014.8
20260507144505 65 71 8.7 13.9 0.00 0.00 0.00 51 1014.9
20260507144004 66 70 6.1 12.2 0.00 0.00 0.00 55 1014.9
20260507143503 66 64 4.3 10.4 0.00 0.00 0.00 58 1014.7
20260507143214 67 65 4.3 10.4 0.00 0.00 0.00 59 1014.9
20260507142505 66 70 6.1 12.2 0.00 0.00 0.00 59 1015.0
20260507142003 66 66 6.1 12.2 0.00 0.00 0.00 56 1015.0
20260507141713 66 70 7.0 11.3 0.00 0.00 0.00 57 1014.9
20260507141003 66 67 6.1 13.9 0.00 0.00 0.00 54 1015.0
20260507140503 66 71 7.0 13.9 0.00 0.00 0.00 57 1015.0
20260507140003 66 76 7.0 12.2 0.00 0.00 0.00 52 1014.9
20260507135503 66 65 7.0 12.2 0.00 0.00 0.00 56 1014.9
20260507135003 66 60 7.0 13.0 0.00 0.00 0.00 58 1015.1
20260507134503 65 68 7.8 13.0 0.00 0.00 0.00 54 1015.0
20260507134214 65 70 7.0 11.3 0.00 0.00 0.00 56 1015.0
20260507133503 65 65 7.0 13.0 0.00 0.00 0.00 57 1015.0
20260507133003 66 67 7.0 12.2 0.00 0.00 0.00 54 1015.1
20260507132503 66 63 7.0 13.9 0.00 0.00 0.00 54 1014.9
20260507132003 65 51 6.1 13.9 0.00 0.00 0.00 55 1014.9
20260507131503 66 48 5.2 13.9 0.00 0.00 0.00 56 1015.0
20260507131005 66 54 6.1 13.9 0.00 0.00 0.00 59 1015.0
20260507130505 66 51 7.0 14.8 0.00 0.00 0.00 57 1015.0
20260507130004 66 59 7.0 14.8 0.00 0.00 0.00 58 1015.1
20260507125503 66 59 6.1 13.9 0.00 0.00 0.00 54 1014.9
20260507125005 66 55 7.0 14.8 0.00 0.00 0.00 57 1014.9
20260507124503 65 60 6.1 14.8 0.00 0.00 0.00 58 1015.0
20260507124003 66 57 6.1 14.8 0.00 0.00 0.00 58 1015.0
20260507123503 66 57 7.0 14.8 0.00 0.00 0.00 58 1015.0
20260507123004 66 56 6.1 13.0 0.00 0.00 0.00 58 1015.1
20260507122503 66 60 5.2 11.3 0.00 0.00 0.00 54 1015.1
20260507122005 67 57 6.1 11.3 0.00 0.00 0.00 50 1014.9
20260507121714 67 52 6.1 11.3 0.00 0.00 0.00 53 1014.9
20260507121003 67 49 6.1 11.3 0.00 0.00 0.00 52 1015.1
20260507120503 66 62 7.8 11.3 0.00 0.00 0.00 51 1015.1
20260507120004 66 63 7.8 12.2 0.00 0.00 0.00 51 1015.0
20260507115503 66 47 7.8 13.9 0.00 0.00 0.00 52 1015.1
20260507115213 65 41 7.8 13.9 0.00 0.00 0.00 52 1015.0
20260507114503 65 65 6.1 11.3 0.00 0.00 0.00 52 1015.1
20260507114003 66 61 5.2 11.3 0.00 0.00 0.00 53 1015.1
20260507113505 67 54 5.2 11.3 0.00 0.00 0.00 53 1015.2
20260507113003 66 45 5.2 13.0 0.00 0.00 0.00 52 1015.0
20260507112503 66 46 5.2 13.0 0.00 0.00 0.00 51 1015.3
20260507112003 66 49 6.1 12.2 0.00 0.00 0.00 54 1015.4
20260507111713 66 40 7.0 13.0 0.00 0.00 0.00 54 1015.3
20260507111003 65 35 6.1 13.0 0.00 0.00 0.00 51 1015.2
20260507110505 65 50 7.8 13.0 0.00 0.00 0.00 52 1015.4
20260507110214 65 57 7.8 13.9 0.00 0.00 0.00 54 1015.5
20260507105503 65 58 8.7 15.6 0.00 0.00 0.00 58 1015.4
20260507105003 66 53 7.0 13.0 0.00 0.00 0.00 55 1015.5
20260507104504 67 45 6.1 13.9 0.00 0.00 0.00 53 1015.3
20260507104003 67 31 5.2 13.9 0.00 0.00 0.00 53 1015.1
20260507103503 67 32 5.2 12.2 0.00 0.00 0.00 53 1015.4
20260507103003 67 33 6.1 14.8 0.00 0.00 0.00 53 1015.3
20260507102713 67 30 7.8 14.8 0.00 0.00 0.00 53 1015.2
20260507102003 68 24 6.1 14.8 0.00 0.00 0.00 52 1015.3
20260507101503 69 17 4.3 11.3 0.00 0.00 0.00 51 1015.3
20260507101003 69 10 5.2 11.3 0.00 0.00 0.00 50 1015.5
20260507100503 67 15 6.1 12.2 0.00 0.00 0.00 52 1015.3
20260507100004 67 13 7.0 13.0 0.00 0.00 0.00 53 1015.5
20260507095713 67 1 7.0 13.9 0.00 0.00 0.00 51 1015.4
20260507095214 67 344 6.1 13.9 0.00 0.00 0.00 53 1015.4
20260507094715 67 344 5.2 13.0 0.00 0.00 0.00 52 1015.3
20260507094214 67 348 6.1 12.2 0.00 0.00 0.00 54 1015.4
20260507093505 67 357 5.2 12.2 0.00 0.00 0.00 54 1015.4
20260507093003 67 3 4.3 9.6 0.00 0.00 0.00 54 1015.4
20260507092715 67 4 5.2 10.4 0.00 0.00 0.00 54 1015.2
20260507092003 66 356 6.1 10.4 0.00 0.00 0.00 56 1015.3
20260507091505 67 10 6.1 10.4 0.00 0.00 0.00 55 1015.1
20260507091214 66 7 6.1 11.3 0.00 0.00 0.00 56 1015.3
20260507090503 66 14 6.1 13.0 0.00 0.00 0.00 58 1015.2
20260507090004 65 24 5.2 13.0 0.00 0.00 0.00 57 1015.3
20260507085505 66 11 5.2 13.0 0.00 0.00 0.00 57 1015.3
20260507085214 65 9 7.0 13.9 0.00 0.00 0.00 58 1015.3
20260507084713 65 11 7.8 13.9 0.00 0.00 0.00 60 1015.3
20260507084005 65 22 6.1 13.9 0.00 0.00 0.00 61 1015.4
20260507083713 66 20 6.1 13.9 0.00 0.00 0.00 61 1015.2
20260507083004 64 16 6.1 15.6 0.00 0.00 0.00 67 1015.3
20260507082503 66 18 5.2 12.2 0.00 0.00 0.00 63 1015.2
20260507082004 65 14 5.2 12.2 0.00 0.00 0.00 68 1015.0
20260507081714 65 7 5.2 12.2 0.00 0.00 0.00 66 1014.9
20260507081003 68 321 4.3 8.7 0.00 0.00 0.00 52 1014.9
20260507080503 67 296 5.2 11.3 0.00 0.00 0.00 52 1014.6
20260507080004 67 296 6.1 11.3 0.00 0.00 0.00 52 1014.8
20260507075714 67 297 6.1 11.3 0.00 0.00 0.00 54 1014.6
20260507075003 67 295 6.1 11.3 0.00 0.00 0.00 55 1014.6
20260507074504 66 303 6.1 9.6 0.00 0.00 0.00 56 1014.7
20260507074003 66 302 5.2 9.6 0.00 0.00 0.00 57 1014.5
20260507073503 66 317 4.3 9.6 0.00 0.00 0.00 56 1014.6
20260507073005 66 317 3.5 7.8 0.00 0.00 0.00 57 1014.8
20260507072503 65 328 3.5 7.0 0.00 0.00 0.00 57 1014.8
20260507072003 66 341 2.6 7.0 0.00 0.01 0.00 61 1014.7
20260507071503 66 305 0.9 4.3 0.00 0.01 0.00 59 1014.6
20260507071213 66 304 1.7 4.3 0.00 0.01 0.00 59 1014.9
20260507070714 67 307 1.7 4.3 0.00 0.01 0.00 58 1014.7
20260507070007 67 291 0.9 2.6 0.00 0.01 0.00 58 1014.8
20260507065503 67 296 0.9 2.6 0.00 0.01 0.00 60 1014.8
20260507065003 65 30 1.7 4.3 0.00 0.01 0.00 64 1014.7
20260507064503 65 53 2.6 5.2 0.00 0.01 0.00 67 1014.8
20260507064004 64 70 2.6 5.2 0.00 0.01 0.00 70 1014.9
20260507063716 64 69 2.6 5.2 0.00 0.01 0.00 72 1014.7
20260507063005 62 52 2.6 5.2 0.00 0.01 0.00 74 1014.8
20260507062503 63 29 2.6 5.2 0.00 0.01 0.00 75 1014.7
20260507062003 63 2 2.6 5.2 0.00 0.01 0.00 75 1014.7
20260507061503 63 340 2.6 5.2 0.00 0.01 0.00 76 1014.7
20260507061003 63 333 1.7 5.2 0.00 0.01 0.00 76 1014.8
20260507060503 62 356 1.7 5.2 0.00 0.01 0.00 76 1014.8
20260507060003 62 116 2.6 7.0 0.00 0.01 0.00 80 1014.6
20260507055503 60 122 3.5 7.0 0.00 0.01 0.00 83 1014.6
20260507055003 61 121 2.6 7.0 0.00 0.01 0.00 81 1014.7
20260507054503 61 193 2.6 7.0 0.00 0.01 0.00 81 1014.7
20260507054003 60 228 4.3 8.7 0.00 0.01 0.00 80 1014.4
20260507053504 60 232 5.2 8.7 0.00 0.01 0.00 82 1014.3
20260507053003 60 237 4.3 7.8 0.00 0.01 0.00 84 1014.4
20260507052505 59 264 3.5 7.8 0.00 0.01 0.00 86 1014.2
20260507052005 59 297 2.6 6.1 0.00 0.01 0.00 87 1014.5
20260507051715 59 309 2.6 6.1 0.00 0.01 0.00 86 1014.3
20260507051003 60 305 1.7 4.3 0.00 0.01 0.00 86 1014.1
20260507050503 60 359 0.9 3.5 0.00 0.01 0.00 85 1014.4
20260507050003 60 8 1.7 3.5 0.00 0.01 0.00 85 1014.3
20260507045504 60 344 1.7 4.3 0.00 0.01 0.00 86 1013.9
20260507045214 60 343 2.6 5.2 0.00 0.01 0.00 86 1014.0
20260507044506 61 309 1.7 5.2 0.00 0.02 0.00 86 1013.8
20260507044004 60 195 1.7 5.2 0.00 0.03 0.00 85 1013.8
20260507043713 60 172 2.6 6.1 0.00 0.03 0.00 85 1013.6
20260507043005 60 170 5.2 7.8 0.00 0.04 0.00 87 1013.6
20260507042503 60 172 5.2 7.8 0.00 0.04 0.00 87 1013.6
20260507042003 60 169 5.2 7.8 0.00 0.05 0.00 87 1013.9
20260507041503 60 166 5.2 7.8 0.00 0.05 0.00 87 1013.8
20260507041003 60 166 5.2 8.7 0.00 0.05 0.00 86 1013.7
20260507040713 60 166 5.2 8.7 0.00 0.05 0.00 86 1013.6
20260507040008 60 159 4.3 8.7 0.00 0.05 0.00 86 1013.5
20260507035713 60 152 4.3 7.0 0.00 0.05 0.00 86 1013.5
20260507035004 60 148 4.3 7.0 0.00 0.05 0.00 85 1013.5
20260507034503 60 168 4.3 7.8 0.00 0.05 0.00 85 1013.4
20260507034003 60 166 4.3 7.8 0.00 0.05 0.00 85 1013.3
20260507033504 59 155 5.2 7.8 0.00 0.05 0.00 88 1013.4
20260507033003 59 160 6.1 8.7 0.00 0.05 0.00 88 1013.4
20260507032503 59 160 6.1 8.7 0.00 0.05 0.00 88 1013.6
20260507032004 59 156 5.2 8.7 0.00 0.05 0.00 88 1013.4
20260507031713 59 160 5.2 8.7 0.00 0.05 0.00 88 1013.5
20260507031003 59 158 5.2 8.7 0.00 0.05 0.00 87 1013.6
20260507030713 59 155 4.3 8.7 0.00 0.05 0.00 86 1013.4
20260507030003 60 166 2.6 4.3 0.00 0.05 0.00 83 1013.4
20260507025712 60 191 1.7 5.2 0.00 0.05 0.00 83 1013.5
20260507025005 60 349 0.9 5.2 0.00 0.05 0.00 83 1013.5
20260507024503 60 152 0.9 4.3 0.00 0.05 0.00 82 1013.4
20260507024004 60 139 1.7 3.5 0.00 0.05 0.00 81 1013.5
20260507023503 61 120 0.9 3.5 0.00 0.05 0.00 82 1013.4
20260507023213 61 346 1.7 5.2 0.00 0.05 0.00 81 1013.4
20260507022503 61 308 1.7 5.2 0.00 0.05 0.00 80 1013.4
20260507022003 61 339 1.7 5.2 0.00 0.05 0.00 80 1013.4
20260507021503 61 360 3.5 5.2 0.00 0.05 0.00 78 1013.4
20260507021005 61 8 2.6 5.2 0.00 0.05 0.00 79 1013.5